Location: ????? ??????
(37.8317°N, 23.8750°E)
Time: 13:47:23
(UTC+00:00)

CSL-04 Rocket - Pass Details

Date: 20 January 2021
Orbit: 806 x 860 km, 98.9° (Epoch: 03 March)

Event Time Altitude Azimuth Distance (km) Brightness Sun altitude
Rises 16:48:09 0° 140° (SE) 3,342 6.6 -14.5°
Reaches altitude 10° 16:50:40 10° 131° (SE) 2,421 5.8 -14.9°
Maximum altitude 16:55:26 34° 68° (ENE) 1,352 4.2 -15.9°
Drops below altitude 10° 17:00:17 10° 5° (N) 2,466 5.9 -16.8°
Sets 17:02:51 0° 357° (N) 3,414 6.8 -17.3°
